AirNav   Everest Fuels
 
 469 users online  

N13 Bloomsburg Municipal Airport
Bloomsburg, Pennsylvania, USA

GOING TO BLOOMSBURG?


FAA INFORMATION EFFECTIVE 31 JANUARY 2019

Location

FAA Identifier: N13
Lat/Long: 40-59-51.5420N / 076-26-06.8869W
40-59.859033N / 076-26.114782W
40.9976506 / -76.4352464
(estimated)
Elevation: 481.3 ft. / 146.7 m (surveyed)
Variation: 12W (2015)
Time zone: UTC -5 (UTC -4 during Daylight Saving Time)
Zip code: 17815

Airport Operations

Airport use: Open to the public
Control tower: no
ARTCC: NEW YORK CENTER
FSS: WILLIAMSPORT FLIGHT SERVICE STATION
NOTAMs facility: IPT (NOTAM-D service available)
Attendance: MON-FRI 0830-1630, ALL SAT-SUN IRREGULAR
FOR SVC AFT HRS CALL 570-317-1966.
Wind indicator: yes
Segmented circle: no
Lights: ACTVT MIRL RWY 09/27- CTAF.
Beacon: white-green (lighted land airport)
Operates sunset to sunrise.

Airport Communications

CTAF/UNICOM: 122.8
WILKES-BARRE APPROACH: 126.3
WILKES-BARRE DEPARTURE: 126.3
WX AWOS-3 at 79PN (8 nm W): 118.075 (570-271-8192)
WX AWOS-3 at N79 (11 nm SW): 119.175 (570-672-0389)
WX AWOS-3 at ZER (18 nm S): 127.575 (570-544-2778)
WX AWOS-3 at HZL (20 nm E): 119.975 (570-459-4901)

Nearby radio navigation aids

VOR radial/distance  VOR name  Freq  Var
MIPr107/10.5MILTON VORTAC109.2009W
SEGr067/23.8SELINSGROVE VOR/DME110.4008W
FQMr152/25.6WILLIAMSPORT VOR/DME114.4009W
RAVr027/27.7RAVINE VORTAC114.6011W
LVZr254/37.5WILKES-BARRE VORTAC111.6010W

 
NDB name  Hdg/Dist  Freq  Var  ID
BELLGROVE019/34.132810WBZJ -... --.. .---

Airport Services

Fuel available: 100LL
Parking: tiedowns
Airframe service: MAJOR
Powerplant service: MAJOR
Bottled oxygen: NONE
Bulk oxygen: NONE

Runway Information

Runway 9/27

Dimensions: 3200 x 60 ft. / 975 x 18 m
Surface: asphalt, in excellent condition
Weight bearing capacity: 
Single wheel: 12.5
Runway edge lights: medium intensity
RUNWAY 9  RUNWAY 27
Latitude: 40-59.798613N40-59.919452N
Longitude: 076-26.453282W076-25.776280W
Elevation: 481.2 ft.481.2 ft.
Gradient: 0.1%0.1%
Traffic pattern: leftleft
Runway heading: 089 magnetic, 077 true269 magnetic, 257 true
Markings: nonprecision, in good conditionnonprecision, in good condition
Touchdown point: yes, no lightsyes, no lights
Obstructions: 12 ft. road, 387 ft. from runway, 50 ft. both sides of centerline, 16:1 slope to clearnone

Airport Ownership and Management from official FAA records

Ownership: Publicly-owned
Owner: TOWN OF BLOOMSBURG
BLOOMSBURG TOWN HALL, 301 E 2ND ST
BLOOMSBURG, PA 17815-9588
Phone (570) 784-7123
Manager: BJ TEICHMAN
301 AIRPORT ROAD
BLOOMSBURG, PA 17815-9588
Phone (570) 317-2481

Airport Operational Statistics

Aircraft based on the field: 21
Single engine airplanes: 19
Multi engine airplanes: 1
Helicopters: 1
    
Aircraft operations: avg 25/day *
71% local general aviation
27% transient general aviation
<1% military
<1% air taxi
* for 12-month period ending 02 October 2018

Additional Remarks

DEER AND GEESE INVOF RWY.
FOR CD CTC AVP APCH AT 570-655-2084.

Instrument Procedures

NOTE: All procedures below are presented as PDF files. If you need a reader for these files, you should download the free Adobe Reader.

NOT FOR NAVIGATION. Please procure official charts for flight.
FAA instrument procedures published for use from 31 January 2019 at 0901Z to 28 February 2019 at 0900Z.

 
IAPs - Instrument Approach Procedures
RNAV (GPS)-B   download (165KB)
VOR-A   download (165KB)
NOTE: Special Take-Off Minimums/Departure Procedures apply   download (212KB)

Other nearby airports with instrument procedures:

8N8 - Danville Airport (10 nm W)
N79 - Northumberland County Airport (11 nm SW)
KZER - Schuylkill County/Joe Zerbey Airport (18 nm S)
KHZL - Hazleton Regional Airport (20 nm E)
KSEG - Penn Valley Airport (22 nm SW)
 
Loc | Ops | Rwys | IFR | FBO | Links
Com | Nav | Svcs | Stats | Notes
Area around N13 (Bloomsburg Municipal Airport)
 
Road maps at: MapQuest Bing Google
 
Aerial photo
WARNING: Photo may not be current or correct
Aerial photo of N13 (Bloomsburg Municipal Airport)
Photo by Chris Lawler
Photo taken 01-Feb-2009

Do you have a better or more recent aerial photo of Bloomsburg Municipal Airport that you would like to share? If so, please send us your photo.

 
Sectional chart

 
Airport distance calculator
Flying to Bloomsburg Municipal Airport? Find the distance to fly.

From to N13

Sunrise and sunset
Times for 21-Feb-2019
 Local
(UTC-5)
 Zulu
(UTC)
Morning civil twilight06:2511:25
Sunrise06:5311:53
Sunset17:4622:46
Evening civil twilight18:1423:14

Current date and time
Zulu (UTC)  21-Feb-2019 06:11:17
Local (UTC-5)  21-Feb-2019 01:11:17
 
METAR
KHZL 
20nm E 
210556Z AUTO 10008KT 070V140 4SM UP OVC004 00/M01 A2993 RMK AO2
KSEG 
22nm SW 
210553Z AUTO 00000KT 4SM BR BKN006 OVC013 00/M01 A2999 RMK AO2 SLP160 60044 I1000 I6020 T00001011 10000 21011 56029
KIPT 
27nm NW 
210554Z AUTO VRB03KT 10SM OVC009 01/M01 A2996 RMK AO2 SLP151 60058 I1001 I6020 T00061011 10006 21011 56036
K22N 
33nm E 
210555Z AUTO 00000KT 1 3/4SM UP OVC008 00/00 A3000 RMK AO2
KMUI 
35nm S 
210556Z AUTO 00000KT 2 1/2SM BR OVC005 M01/M02 A3000 RMK AO2 DZE05 SLP168 T10071018 11007 21016 57043 PNO $
KAVP 
38nm NE 
210554Z 34004KT 1 3/4SM R04/5500VP6000FT BR OVC017 00/M01 A2994 RMK AO2 FZRAE00B16E50 SLP146 P0001 60029 T00001006 10011 21022 56028
TAF
KIPT 
27nm NW 
210323Z 2103/2124 06012G19KT 4SM -FZRA OVC011 WS020/16040KT FM210700 07008KT 2SM -FZDZ BR OVC007 WS020/21036KT FM211200 VRB03KT 3SM BR OVC008 FM211500 28008KT P6SM SCT025 BKN035
NOTAMs
Click for the latest NOTAMs
NOTAMs are issued by the DoD/FAA and will open in a separate window not controlled by AirNav.

 

 
 

FBO, Fuel Providers, and Aircraft Ground Support

  
 Business Name 
 
 Contact 
 
 Services / Description 
 
Fuel Prices
 
Comments
  
Town of Bloomsburg 570-317-2481
no information available

If you are affiliated with Town of Bloomsburg and would like to show here your services, contact info, web link, logo, and more, click here
100LL
AS $4.85 
 Updated 02-Jan-2019
 
   8 read write
AS=Assisted/Self Service
Update Fuel Prices
 

Would you like to see your business listed on this page?

 If your business provides an interesting product or service to pilots, flight crews, aircraft, or users of the Bloomsburg Municipal Airport, you should consider listing it here.  To start the listing process, click on the button below
 
Add a business
 

Other Pages about Bloomsburg Municipal Airport

bloomsburgpa.org/...
 
Update a link
 
Copyright © AirNav, LLC. All rights reserved. Privacy Policy  Contact